Location: Vihti�l�
(61.3833°N, 23.0667°E)
Time: 03:33:55
(UTC+00:00)

NOSS 2-2 (E) - Pass Details

Date: 29 November 2020
Orbit: 465 x 1741 km, 63.3° (Epoch: 16 January)

Event Time Altitude Azimuth Distance (km) Brightness Sun altitude
Exits shadow 03:22:25 75° 55° (NE) 643 3.6 -25.2°
Drops below altitude 10° 03:27:05 10° 70° (ENE) 2,280 7.4 -24.6°
Sets 03:29:53 0° 71° (ENE) 3,412 8.5 -24.3°
